Regional Weather Roundup
Issued by NWS

Home | Current Version | Previous Version | Graphics & Text | Print | Product List | Glossary On
Versions: 1 2 3 4 5 6 7 8 9 10 11 12 13 14 15 16 17 18 19 20 21 22 23 24 25 26 27 28 29 30 31 32 33 34 35 36 37 38 39 40 41 42 43 44 45 46 47 48 49 50
000
ASUS43 KLMK 260202
RWRKY
KENTUCKY REGIONAL WEATHER ROUNDUP
NATIONAL WEATHER SERVICE LOUISVILLE KY
1000 PM EDT SAT APR 25 2015

NOTE "FAIR" INDICATES FEW OR NO CLOUDS BELOW 12,000 FEET
WITH NO SIGNIFICANT WEATHER AND/OR OBSTRUCTIONS TO VISIBILITY.

KYZ001>023-026-027-061>063-070>075-260300-
WESTERN AND SOUTH CENTRAL KENTUCKY

CITY           SKY/WX    TMP DP  RH WIND       PRES   REMARKS
PADUCAH        MOCLDY    62  58  86 NE3       29.57R
HENDERSON      CLOUDY    61  57  88 N8        29.56R
OWENSBORO      MOCLDY    58  57  96 CALM      29.56R
HOPKINSVILLE   LGT RAIN  61  59  94 N10       29.57R
BOWLING GREEN  TSTM      62  59  90 VRB3      29.56R FOG
GLASGOW        NOT AVBL
$$

KYZ024-025-028>034-038-045-046-053-260300-
NORTH CENTRAL KENTUCKY

CITY           SKY/WX    TMP DP  RH WIND       PRES   REMARKS
LOUISVILLE/SDF LGT RAIN  51  48  89 E9        29.58R
LOUISVILLE/LOU LGT RAIN  50  47  89 E7        29.59R
FORT KNOX      LGT RAIN  52  50  95 N9        29.54R
$$

KYZ035>037-039>044-047>052-055>060-089>105-260300-
NORTHEAST KENTUCKY

CITY           SKY/WX    TMP DP  RH WIND       PRES   REMARKS
LEXINGTON      LGT RAIN  47  46  97 NE17      29.55F
COVINGTON      CLOUDY    45  44  97 NE18      29.62R
FRANKFORT      CLOUDY    47  45  93 NE8       29.58R
$$

KYZ054-064>069-076>088-106>120-260300-
SOUTHEAST KENTUCKY

CITY           SKY/WX    TMP DP  RH WIND       PRES   REMARKS
JACKSON        FOG       49  48  97 CALM      29.56F VSB 1
LONDON         MOCLDY    63  52  67 N15G21    29.52R
SOMERSET       NOT AVBL
MIDDLESBORO    CLEAR     69  62  78 SW7       29.52F
MONTICELLO     MOCLDY    72  59  63 S17G24    29.47F
$$




USA.gov is the U.S. government's official web portal to all federal, state and local government web resources and services.